Location: Arcueil
(48.7999°N, 2.3326°E)
Time: 17:57:49
(UTC+00:00)

Cosmos 1328 - Visible Passes

Search period start: 01 October 2023 00:00
Search period end: 11 October 2023 00:00
Orbit: 511 x 538 km, 82.5° (Epoch: 01 October)

Date Brightness Start Highest point End Pass type
(mag) Time Alt. Az. Time Alt. Az. Time Alt. Az.
02 Oct 6.7 20:30:20 10° N 20:30:23 10° N 20:30:23 10° N visible
03 Oct 6.6 20:18:12 10° N 20:18:20 11° N 20:18:20 11° N visible
04 Oct 6.5 20:06:04 10° N 20:06:18 11° N 20:06:18 11° N visible
05 Oct 6.3 19:53:55 10° N 19:54:14 12° NNE 19:54:14 12° NNE visible
06 Oct 6.2 19:41:46 10° NNE 19:42:11 12° NNE 19:42:11 12° NNE visible
07 Oct 6.1 19:29:36 10° NNE 19:30:08 13° NNE 19:30:08 13° NNE visible
07 Oct 7.1 21:05:19 10° NNW 21:05:20 10° NNW 21:05:20 10° NNW visible
08 Oct 6.0 19:17:26 10° NNE 19:18:06 13° NNE 19:18:06 13° NNE visible
08 Oct 6.9 20:52:59 10° NNW 20:53:18 12° NNW 20:53:18 12° NNW visible
09 Oct 6.0 19:05:16 10° NNE 19:06:03 14° NNE 19:06:03 14° NNE visible
09 Oct 6.7 20:40:39 10° NNW 20:41:15 14° NNW 20:41:15 14° NNW visible
10 Oct 5.9 18:53:06 10° NNE 18:54:01 14° NE 18:54:01 14° NE visible
10 Oct 6.5 20:28:18 10° NNW 20:29:13 16° NNW 20:29:13 16° NNW visible
